Weather History for Kirksville, MO

Change the Weather History Date:

Monday, December 17, 2012

  Actual Average Record
Temperature  
Mean Temperature 34 °F 28 °F  
Max Temperature 41 °F 36 °F 65 °F (1939)
Min Temperature 26 °F 20 °F -7 °F (1932)
Degree Days  
Heating Degree Days 31 37  
Month to date heating degree days 414 589  
Since 1 July heating degree days 1684 1810  
Cooling Degree Days 0 0  
Month to date cooling degree days 0 0  
Year to date cooling degree days 1321 939  
Moisture  
Dew Point 28 °F    
Average Humidity 82    
Maximum Humidity 100    
Minimum Humidity 64    
Precipitation  
Precipitation 0.00 in 0.05 in 0.28 in (1967)
Month to date precipitation 0.61 1.04  
Year to date precipitation 27.03 38.60  
Sea Level Pressure  
Sea Level Pressure 29.75 in    
Wind  
Wind Speed 4 mph (West)    
Max Wind Speed 9 mph    
Max Gust Speed 16 mph    
Visibility 5 miles    
Events      
T = Trace of Precipitation, MM = Missing Value Source: NWS Daily Summary

Daily Weather History Graph

Daily Weather History Graph

Search for Another Location

Airport:

Trip Planner

Search our weather history database for the weather conditions in past years. The results will help you decide how hot, cold, wet, or windy it might be!

Date:

Astronomy

Dec. 17, 2012 Rise Set
Actual Time 7:26 AM CST 4:46 PM CST
Civil Twilight 6:56 AM CST 5:17 PM CST
Nautical Twilight 6:22 AM CST 5:51 PM CST
Astronomical Twilight 5:49 AM CST 6:24 PM CST
Moon 10:35 AM CST (12/17) 10:08 PM CST (12/17)
Length of Visible Light 10h 20m
Length of Day
9h 19m
Waxing Crescent, 25% of the Moon is Illuminated
Dec 17
Waxing Crescent
Dec 19
First Quarter
Dec 28
Full
Jan 4
Last Quarter
Jan 11
New

Hourly Weather History & Observations

Time (CST) Temp. Windchill Dew Point Humidity Pressure Visibility Wind Dir Wind Speed Gust Speed Precip Events Conditions
12:55 AM 35.1 °F 32.2 °F 30.0 °F 82% 29.79 in 7.0 mi North 3.5 mph - N/A   Overcast
1:55 AM 34.0 °F 31.0 °F 30.0 °F 85% 29.79 in 6.0 mi NW 3.5 mph - N/A   Overcast
2:55 AM 34.0 °F 31.0 °F 30.0 °F 85% 29.79 in 7.0 mi North 3.5 mph - N/A   Overcast
3:55 AM 34.0 °F - 28.9 °F 82% 29.77 in 6.0 mi Calm Calm - N/A   Haze
4:55 AM 34.0 °F 31.0 °F 30.0 °F 85% 29.77 in 5.0 mi North 3.5 mph - N/A   Overcast
5:55 AM 34.0 °F 31.0 °F 28.9 °F 82% 29.76 in 5.0 mi NNE 3.5 mph - N/A   Haze
6:55 AM 33.1 °F 27.7 °F 28.9 °F 85% 29.78 in 4.0 mi NNW 5.8 mph - N/A   Overcast
7:55 AM 33.1 °F 27.7 °F 28.9 °F 85% 29.77 in 3.0 mi North 5.8 mph - N/A   Overcast
8:55 AM 33.1 °F - 28.9 °F 85% 29.79 in 3.0 mi Calm Calm - N/A   Overcast
9:55 AM 34.0 °F - 28.9 °F 82% 29.78 in 3.0 mi Calm Calm - N/A   Haze
10:55 AM 35.1 °F - 28.9 °F 78% 29.77 in 4.0 mi Calm Calm - N/A   Haze
11:22 AM 35.6 °F 30.7 °F 28.4 °F 75% 29.73 in 4.0 mi WNW 5.8 mph - N/A   Haze
11:55 AM 37.0 °F 34.5 °F 28.0 °F 70% 29.75 in 5.0 mi NNW 3.5 mph - N/A   Haze
12:04 PM 37.4 °F 33.8 °F 28.4 °F 70% 29.72 in 5.0 mi Variable 4.6 mph - N/A   Haze
12:55 PM 39.0 °F 34.0 °F 28.0 °F 65% 29.74 in 6.0 mi SW 6.9 mph - N/A   Haze
1:55 PM 39.9 °F 35.1 °F 28.9 °F 65% 29.72 in 7.0 mi WSW 6.9 mph - N/A   Clear
2:55 PM 39.9 °F 34.5 °F 28.9 °F 65% 29.71 in 9.0 mi West 8.1 mph - N/A   Clear
3:55 PM 39.9 °F 35.8 °F 28.9 °F 65% 29.72 in 9.0 mi West 5.8 mph - N/A   Clear
6:55 PM 30.9 °F 27.5 °F 28.0 °F 89% 29.76 in 7.0 mi West 3.5 mph - N/A   Partly Cloudy
7:28 PM 32.0 °F - 28.4 °F 87% 29.72 in 7.0 mi Calm Calm - N/A   Mostly Cloudy
7:35 PM 32.0 °F - 28.4 °F 87% 29.72 in 7.0 mi Calm Calm - N/A   Scattered Clouds
7:55 PM 30.9 °F - 28.0 °F 89% 29.75 in 7.0 mi Calm Calm - N/A   Clear
8:55 PM 27.0 °F - 25.0 °F 92% 29.77 in 2.5 mi Calm Calm - N/A   Clear
9:15 PM 26.6 °F 21.2 °F 24.8 °F 93% 29.73 in 4.0 mi SSW 4.6 mph - N/A   Scattered Clouds
9:55 PM 28.0 °F 24.2 °F 26.1 °F 92% 29.78 in 4.0 mi SW 3.5 mph - N/A   Clear
10:46 PM 28.4 °F 23.3 °F 26.6 °F 93% 29.74 in 2.5 mi SSW 4.6 mph - N/A   Clear
10:55 PM 27.0 °F 21.6 °F 26.1 °F 96% 29.78 in 2.0 mi South 4.6 mph - N/A   Clear
11:12 PM 28.4 °F 24.6 °F 26.6 °F 93% 29.73 in 1.8 mi South 3.5 mph - N/A   Clear
11:26 PM 26.6 °F 20.0 °F 26.6 °F 100% 29.73 in 2.0 mi SSE 5.8 mph - N/A   Clear
11:55 PM 27.0 °F 20.5 °F 26.1 °F 96% 29.76 in 2.0 mi South 5.8 mph - N/A   Scattered Clouds